Regional Weather Roundup
Issued by NWS

Home | Current Version | Previous Version | Text Only | Print | Product List | Glossary Off
Versions: 1 2 3 4 5 6 7 8 9 10 11 12 13 14 15 16 17 18 19 20 21 22 23 24 25 26 27 28 29 30 31 32 33 34 35 36 37 38 39 40 41 42 43 44 45 46 47 48 49 50

000
ASUS43 KFSD 011010
RWRSD

WEATHER ROUNDUP FOR SOUTH DAKOTA
NATIONAL WEATHER SERVICE SIOUX FALLS SD
400 AM CST SUN MAR 01 2015

NOTE: "FAIR" INDICATES FEW OR NO CLOUDS BELOW 12,000 FEET WITH NO
SIGNIFICANT WEATHER AND/OR OBSTRUCTIONS TO VISIBILITY.


SDZ001>005-009-010-012>017-011100-
NORTHWEST AND NORTH CENTRAL SOUTH DAKOTA

CITY           SKY/WX    TMP DP  RH WIND       PRES   REMARKS
BUFFALO          N/A      8   3  80 W7        30.07F WCI  -3
FAITH            N/A     12   6  77 W10       30.18F WCI  -1
MOBRIDGE       PTCLDY     3  -1  83 CALM      30.18F
$$

SDZ012>016-024>037-041>051-057-063-072>074-011100-
SOUTHWEST AND SOUTH CENTRAL SOUTH DAKOTA

CITY           SKY/WX    TMP DP  RH WIND       PRES   REMARKS
RAPID CTY ARPT CLOUDY    14  10  84 W6        30.19S WCI   5
PIERRE         MOCLDY    11   3  70 SW12      30.24S WCI  -3
CUSTER         LGT SNOW   7   4  87 SW6       30.03S FOG     WCI  -3
ELLSWORTH AFB  PTCLDY    12   7  81 W2        30.18S
PHILIP         CLOUDY    14   7  73 W6        30.25S WCI   5
PINE RIDGE     LGT SNOW  17  11  77 S3        30.19F
WINNER         CLOUDY    18   3  52 SW7       30.26S WCI   9
$$

SDZ004>011-016>023-039-040-011100-
NORTHEAST SOUTH DAKOTA

CITY           SKY/WX    TMP DP  RH WIND       PRES   REMARKS
ABERDEEN       PTCLDY     1  -3  83 SW3       30.23F
WATERTOWN      PTCLDY     1  -3  83 SW6       30.20S WCI -10
SISSETON         N/A      6   0  76 W7        30.23F WCI  -6
$$

SDZ017-020-022-023-036>040-048>070-011100-
SOUTHEAST SOUTH DAKOTA

CITY           SKY/WX    TMP DP  RH WIND       PRES   REMARKS
SIOUX FALLS    PTCLDY    12   8  84 CALM      30.25S
HURON          PTCLDY     4   0  83 CALM      30.27S
CHAMBERLAIN    CLOUDY    14  10  83 SW5       30.27S WCI   6
MITCHELL       CLEAR      9   5  84 SW6       30.29S WCI  -1
YANKTON        PTCLDY    16  10  79 NW9       30.30R WCI   4
$$

ABBREVIATIONS USED IN REMARKS
   TC - TEMPERATURE IN CELSIUS
  WCI - WIND CHILL INDEX
   HX - HEAT INDEX
  VSB - VISIBILITY




USA.gov is the U.S. government's official web portal to all federal, state and local government web resources and services.